GW4386 Weather Reports


Display with metric or nautical units.
time (UTC)temp
F
wind
direction
speed
MPH
gust
MPH
rain 1hr
in
rain 24hr
in
rain mn
in
humidity
%
barometer
mb
20260510201059 50 40 0.0 1.0 0.00 0.00 0.00 68 1011.3
20260510200601 50 52 0.0 0.0 0.00 0.00 0.00 68 1011.4
20260510200116 50 117 0.0 0.0 0.00 0.00 0.00 68 1011.4
20260510200002 50 117 0.0 0.0 0.00 0.00 0.00 68 1011.4
20260510195559 50 167 0.0 0.0 0.00 0.00 0.00 68 1011.5
20260510195101 51 167 0.0 0.0 0.00 0.00 0.00 68 1011.5
20260510194609 51 98 0.0 0.0 0.00 0.00 0.00 67 1011.5
20260510194059 51 165 0.0 1.0 0.00 0.00 0.00 66 1011.6
20260510193559 52 82 0.0 1.0 0.00 0.00 0.00 66 1011.6
20260510193118 52 101 0.0 0.0 0.00 0.00 0.00 65 1011.6
20260510192559 52 360 0.0 0.0 0.00 0.00 0.00 64 1011.7
20260510192059 53 142 0.0 0.0 0.00 0.00 0.00 63 1011.7
20260510191600 53 142 0.0 0.0 0.00 0.00 0.00 63 1011.7
20260510191059 53 142 0.0 0.0 0.00 0.00 0.00 62 1011.7
20260510190601 54 113 0.0 0.0 0.00 0.00 0.00 61 1011.7
20260510190106 55 140 0.0 0.0 0.00 0.00 0.00 60 1011.7
20260510185559 55 128 0.0 0.0 0.00 0.00 0.00 59 1011.8
20260510185059 55 128 0.0 0.0 0.00 0.00 0.00 59 1011.7
20260510184604 56 128 0.0 0.0 0.00 0.00 0.00 58 1011.7
20260510184059 56 156 0.0 0.0 0.00 0.00 0.00 57 1011.7
20260510183600 57 189 0.0 0.0 0.00 0.00 0.00 57 1011.7
20260510183100 57 128 0.0 0.0 0.00 0.00 0.00 56 1011.7
20260510182559 58 193 0.0 0.0 0.00 0.00 0.00 56 1011.7
20260510182058 59 240 0.0 0.0 0.00 0.00 0.00 54 1011.7
20260510181559 59 294 0.0 0.0 0.00 0.00 0.00 51 1011.7
20260510181059 60 197 0.0 0.0 0.00 0.00 0.00 50 1011.6
20260510180600 61 197 0.0 0.0 0.00 0.00 0.00 50 1011.7
20260510180106 62 229 0.0 1.0 0.00 0.00 0.00 47 1011.7
20260510175559 62 217 0.0 1.0 0.00 0.00 0.00 47 1011.7
20260510175059 63 167 0.0 0.0 0.00 0.00 0.00 44 1011.8
20260510174606 64 218 0.0 2.0 0.00 0.00 0.00 43 1011.8
20260510174059 64 199 0.0 2.0 0.00 0.00 0.00 42 1011.8
20260510173603 65 233 0.0 3.0 0.00 0.00 0.00 41 1011.9
20260510173104 65 235 0.0 6.0 0.00 0.00 0.00 39 1011.9
20260510172559 66 229 1.0 6.0 0.00 0.00 0.00 38 1011.9
20260510172058 66 212 3.0 7.0 0.00 0.00 0.00 38 1011.9
20260510171600 66 216 2.0 6.0 0.00 0.00 0.00 38 1011.9
20260510171058 66 221 0.0 3.0 0.00 0.00 0.00 37 1012.0
20260510170558 67 278 0.0 4.0 0.00 0.00 0.00 36 1012.0
20260510170100 67 205 0.0 7.0 0.00 0.00 0.00 36 1012.1
20260510165602 67 214 2.0 7.0 0.00 0.00 0.00 35 1012.1
20260510165058 68 209 3.0 8.0 0.00 0.00 0.00 35 1012.1
20260510164611 68 182 3.0 9.0 0.00 0.00 0.00 35 1012.2
20260510164058 69 232 4.0 9.0 0.00 0.00 0.00 34 1012.2
20260510163603 69 184 5.0 11.0 0.00 0.00 0.00 33 1012.3
20260510163059 70 94 1.0 7.0 0.00 0.00 0.00 34 1012.2
20260510162558 70 207 4.0 9.0 0.00 0.00 0.00 34 1012.4
20260510162058 70 197 4.0 9.0 0.00 0.00 0.00 34 1012.4
20260510161559 69 196 4.0 10.0 0.00 0.00 0.00 34 1012.4
20260510161059 69 198 3.0 11.0 0.00 0.00 0.00 34 1012.4
20260510160601 70 188 3.0 11.0 0.00 0.00 0.00 34 1012.5
20260510160101 70 174 5.0 11.0 0.00 0.00 0.00 33 1012.5
20260510155600 70 128 3.0 11.0 0.00 0.00 0.00 33 1012.6
20260510155102 70 148 4.0 12.0 0.00 0.00 0.00 33 1012.7
20260510154604 69 225 4.0 12.0 0.00 0.00 0.00 33 1012.7
20260510154100 70 153 3.0 7.0 0.00 0.00 0.00 34 1012.8
20260510153559 70 190 2.0 10.0 0.00 0.00 0.00 35 1012.8
20260510153100 70 205 3.0 10.0 0.00 0.00 0.00 35 1012.9
20260510152559 70 150 3.0 11.0 0.00 0.00 0.00 34 1012.9
20260510152100 70 96 2.0 11.0 0.00 0.00 0.00 34 1013.0
20260510151600 70 212 6.0 10.0 0.00 0.00 0.00 34 1013.0
20260510151059 70 136 2.0 10.0 0.00 0.00 0.00 34 1013.1
20260510150600 70 142 4.0 10.0 0.00 0.00 0.00 34 1013.2
20260510150124 70 170 1.0 10.0 0.00 0.00 0.00 32 1013.2
20260510145602 70 228 2.0 9.0 0.00 0.00 0.00 32 1013.3
20260510145059 71 193 0.0 11.0 0.00 0.00 0.00 33 1013.3
20260510144619 70 128 6.0 11.0 0.00 0.00 0.00 33 1013.4
20260510144102 70 148 3.0 10.0 0.00 0.00 0.00 34 1013.5
20260510143558 71 225 3.0 12.0 0.00 0.00 0.00 33 1013.5
20260510143059 71 193 5.0 12.0 0.00 0.00 0.00 32 1013.6
20260510142558 71 170 6.0 11.0 0.00 0.00 0.00 32 1013.7
20260510142059 71 53 3.0 6.0 0.00 0.00 0.00 31 1013.7
20260510141603 70 96 0.0 8.0 0.00 0.00 0.00 32 1013.9
20260510141059 70 188 4.0 10.0 0.00 0.00 0.00 32 1014.0
20260510140558 70 216 5.0 12.0 0.00 0.00 0.00 30 1014.0
20260510140059 70 159 4.0 11.0 0.00 0.00 0.00 31 1014.0
20260510135558 70 197 4.0 10.0 0.00 0.00 0.00 32 1014.0
20260510135059 71 59 1.0 8.0 0.00 0.00 0.00 30 1014.0
20260510134608 71 134 0.0 10.0 0.00 0.00 0.00 31 1014.2
20260510134058 71 163 5.0 11.0 0.00 0.00 0.00 31 1014.3
20260510133600 71 154 5.0 12.0 0.00 0.00 0.00 30 1014.3
20260510133103 71 184 2.0 8.0 0.00 0.00 0.00 31 1014.4
20260510132559 70 209 3.0 9.0 0.00 0.00 0.00 30 1014.4
20260510132102 70 184 4.0 9.0 0.00 0.00 0.00 31 1014.6
20260510131602 70 200 1.0 10.0 0.00 0.00 0.00 30 1014.6
20260510131058 70 253 4.0 11.0 0.00 0.00 0.00 30 1014.8
20260510130601 70 195 6.0 11.0 0.00 0.00 0.00 30 1014.8
20260510130059 70 135 3.0 9.0 0.00 0.00 0.00 31 1014.9
20260510125558 70 219 4.0 11.0 0.00 0.00 0.00 31 1014.9
20260510125059 70 215 5.0 10.0 0.00 0.00 0.00 32 1014.9
20260510124602 71 227 3.0 13.0 0.00 0.00 0.00 32 1014.9
20260510124059 70 67 2.0 13.0 0.00 0.00 0.00 32 1015.1
20260510123559 70 103 3.0 11.0 0.00 0.00 0.00 32 1015.1
20260510123059 70 152 4.0 9.0 0.00 0.00 0.00 31 1015.2
20260510122601 69 219 2.0 8.0 0.00 0.00 0.00 32 1015.3
20260510122058 70 121 3.0 8.0 0.00 0.00 0.00 32 1015.4
20260510121607 69 239 3.0 9.0 0.00 0.00 0.00 32 1015.4
20260510121102 70 211 6.0 9.0 0.00 0.00 0.00 31 1015.5
20260510120559 69 74 4.0 8.0 0.00 0.00 0.00 33 1015.7
20260510120058 67 309 1.0 8.0 0.00 0.00 0.00 33 1015.8
20260510115559 69 156 3.0 10.0 0.00 0.00 0.00 32 1015.9
20260510115058 69 123 5.0 10.0 0.00 0.00 0.00 33 1015.9
20260510114616 69 205 4.0 11.0 0.00 0.00 0.00 32 1016.1
20260510114058 69 117 4.0 11.0 0.00 0.00 0.00 31 1016.1
20260510113558 69 160 3.0 10.0 0.00 0.00 0.00 31 1016.1
20260510113101 69 231 5.0 9.0 0.00 0.00 0.00 33 1016.2
20260510112559 69 221 3.0 9.0 0.00 0.00 0.00 33 1016.3
20260510112059 69 195 3.0 10.0 0.00 0.00 0.00 32 1016.3
20260510111607 68 190 5.0 14.0 0.00 0.00 0.00 33 1016.4
20260510111059 68 189 6.0 14.0 0.00 0.00 0.00 33 1016.6
20260510110558 67 195 3.0 10.0 0.00 0.00 0.00 33 1016.6
20260510110001 67 105 3.0 6.0 0.00 0.00 0.00 36 1016.6
20260510105558 66 85 0.0 6.0 0.00 0.00 0.00 36 1016.8
20260510105102 66 200 3.0 9.0 0.00 0.00 0.00 36 1016.9
20260510104620 67 202 4.0 10.0 0.00 0.00 0.00 35 1017.0
20260510104059 67 65 6.0 11.0 0.00 0.00 0.00 35 1017.0
20260510103558 68 205 3.0 11.0 0.00 0.00 0.00 34 1017.1
20260510103059 69 145 3.0 11.0 0.00 0.00 0.00 34 1017.1
20260510102559 69 75 2.0 7.0 0.00 0.00 0.00 34 1017.1
20260510102103 67 48 3.0 8.0 0.00 0.00 0.00 35 1017.3
20260510101609 66 315 4.0 6.0 0.00 0.00 0.00 35 1017.4
20260510101058 67 215 1.0 7.0 0.00 0.00 0.00 36 1017.4
20260510100558 66 135 1.0 9.0 0.00 0.00 0.00 36 1017.4
20260510095559 68 94 5.0 9.0 0.00 0.00 0.00 35 1017.3
20260510095058 68 129 3.0 9.0 0.00 0.00 0.00 35 1017.4
20260510094607 65 71 0.0 9.0 0.00 0.00 0.00 36 1017.4
20260510094058 66 146 2.0 9.0 0.00 0.00 0.00 36 1017.5
20260510093601 67 142 4.0 9.0 0.00 0.00 0.00 36 1017.5
20260510093103 66 128 2.0 10.0 0.00 0.00 0.00 36 1017.7
20260510092601 66 219 4.0 10.0 0.00 0.00 0.00 36 1017.7
20260510092058 65 62 4.0 10.0 0.00 0.00 0.00 36 1017.7
20260510091559 66 186 2.0 13.0 0.00 0.00 0.00 37 1017.7
20260510091059 66 144 8.0 15.0 0.00 0.00 0.00 36 1017.8
20260510090559 66 87 1.0 11.0 0.00 0.00 0.00 35 1018.1
20260510090058 66 121 3.0 11.0 0.00 0.00 0.00 35 1018.1
20260510085600 64 91 1.0 8.0 0.00 0.00 0.00 37 1018.2
20260510085057 64 178 2.0 6.0 0.00 0.00 0.00 38 1018.3
20260510084557 63 225 3.0 8.0 0.00 0.00 0.00 39 1018.4
20260510084058 64 204 4.0 8.0 0.00 0.00 0.00 38 1018.3
20260510083558 65 205 0.0 5.0 0.00 0.00 0.00 37 1018.5
20260510083059 64 225 0.0 3.0 0.00 0.00 0.00 38 1018.6
20260510082601 63 334 1.0 5.0 0.00 0.00 0.00 37 1018.6
20260510082058 63 61 2.0 6.0 0.00 0.00 0.00 39 1018.7
20260510081558 62 213 3.0 6.0 0.00 0.00 0.00 40 1018.7
20260510081057 63 223 3.0 7.0 0.00 0.00 0.00 40 1018.8
20260510080557 64 152 1.0 7.0 0.00 0.00 0.00 40 1018.8
20260510080100 63 166 3.0 7.0 0.00 0.00 0.00 41 1018.7
20260510075558 62 39 1.0 8.0 0.00 0.00 0.00 44 1018.7
20260510075058 62 168 2.0 9.0 0.00 0.00 0.00 44 1018.7
20260510074606 62 124 3.0 9.0 0.00 0.00 0.00 44 1018.7
20260510074100 62 53 4.0 9.0 0.00 0.00 0.00 43 1018.6
20260510073559 62 117 4.0 7.0 0.00 0.00 0.00 43 1018.8
20260510073059 61 117 4.0 10.0 0.00 0.00 0.00 44 1018.8
20260510072559 61 163 3.0 9.0 0.00 0.00 0.00 46 1018.9
20260510072100 61 137 3.0 9.0 0.00 0.00 0.00 47 1018.9
20260510071603 60 204 3.0 7.0 0.00 0.00 0.00 49 1018.9
20260510071059 60 67 2.0 5.0 0.00 0.00 0.00 50 1019.1
20260510070600 59 147 1.0 5.0 0.00 0.00 0.00 53 1019.2
20260510070109 59 101 2.0 5.0 0.00 0.00 0.00 55 1019.3
20260510065558 58 128 1.0 6.0 0.00 0.00 0.00 58 1019.3
20260510065059 57 136 2.0 6.0 0.00 0.00 0.00 58 1019.4
20260510064602 57 40 2.0 6.0 0.00 0.00 0.00 59 1019.4
20260510064059 56 38 1.0 5.0 0.00 0.00 0.00 61 1019.4
20260510063559 56 62 1.0 4.0 0.00 0.00 0.00 62 1019.4
20260510063102 55 13 0.0 3.0 0.00 0.00 0.00 64 1019.5
20260510062559 54 54 0.0 3.0 0.00 0.00 0.00 65 1019.5
20260510062058 53 61 0.0 4.0 0.00 0.00 0.00 66 1019.5
20260510061558 53 24 2.0 5.0 0.00 0.00 0.00 67 1019.4
20260510061100 52 65 3.0 5.0 0.00 0.00 0.00 68 1019.4
20260510060601 52 55 3.0 5.0 0.00 0.00 0.00 68 1019.5
20260510055558 51 327 0.0 4.0 0.00 0.00 0.00 70 1019.7
20260510055058 50 43 0.0 4.0 0.00 0.00 0.00 71 1019.6
20260510054605 49 48 1.0 4.0 0.00 0.00 0.00 72 1019.6
20260510054057 48 50 0.0 3.0 0.00 0.00 0.00 73 1019.7
20260510053602 48 317 0.0 3.0 0.00 0.00 0.00 73 1019.6
20260510053059 47 50 0.0 3.0 0.00 0.00 0.00 74 1019.7
20260510052558 47 57 0.0 2.0 0.00 0.00 0.00 75 1019.7
20260510052059 46 65 0.0 3.0 0.00 0.00 0.00 77 1019.8
20260510051558 45 113 0.0 3.0 0.00 0.00 0.00 78 1019.8
20260510051100 45 44 0.0 2.0 0.00 0.00 0.00 78 1019.9
20260510050558 44 34 0.0 2.0 0.00 0.00 0.00 79 1019.9
20260510050100 43 46 0.0 1.0 0.00 0.00 0.00 80 1019.9
20260510045601 43 52 0.0 3.0 0.00 0.00 0.00 82 1019.9
20260510045103 42 43 0.0 3.0 0.00 0.00 0.00 83 1019.8
20260510044611 41 48 0.0 3.0 0.00 0.00 0.00 84 1019.9
20260510044100 40 59 1.0 3.0 0.00 0.00 0.00 85 1019.9
20260510043559 39 65 0.0 3.0 0.00 0.00 0.00 86 1020.1
20260510043106 38 199 0.0 0.0 0.00 0.00 0.00 87 1020.2
20260510042558 38 163 0.0 3.0 0.00 0.00 0.00 87 1020.3
20260510042102 37 299 0.0 4.0 0.00 0.00 0.00 88 1020.2
20260510041600 37 57 2.0 4.0 0.00 0.00 0.00 88 1020.2
20260510041059 36 65 1.0 3.0 0.00 0.00 0.00 88 1020.3
20260510040558 36 73 1.0 3.0 0.00 0.00 0.00 88 1020.4
20260510040058 36 57 1.0 3.0 0.00 0.00 0.00 88 1020.5
20260510035558 35 73 0.0 2.0 0.00 0.00 0.00 88 1020.6
20260510035059 35 70 0.0 1.0 0.00 0.00 0.00 88 1020.6
20260510034558 35 103 0.0 1.0 0.00 0.00 0.00 88 1020.6
20260510034058 34 78 0.0 1.0 0.00 0.00 0.00 88 1020.6
20260510033602 34 360 0.0 1.0 0.00 0.00 0.00 88 1020.6
20260510033126 34 55 0.0 1.0 0.00 0.00 0.00 88 1020.6
20260510032600 34 360 0.0 1.0 0.00 0.00 0.00 88 1020.6
20260510032058 34 61 0.0 1.0 0.00 0.00 0.00 88 1020.6
20260510031622 34 67 0.0 1.0 0.00 0.00 0.00 88 1020.6
20260510031058 34 54 0.0 1.0 0.00 0.00 0.00 88 1020.6
20260510030558 34 105 0.0 1.0 0.00 0.00 0.00 88 1020.6
20260510025558 34 70 0.0 2.0 0.00 0.00 0.00 88 1020.6
20260510025100 34 67 0.0 2.0 0.00 0.00 0.00 88 1020.6
20260510024558 34 64 0.0 2.0 0.00 0.00 0.00 88 1020.7
20260510024105 34 57 0.0 1.0 0.00 0.00 0.00 88 1020.8
20260510023558 34 54 0.0 1.0 0.00 0.00 0.00 88 1020.8
20260510023100 34 91 0.0 2.0 0.00 0.00 0.00 87 1020.8
20260510022559 34 100 0.0 3.0 0.00 0.00 0.00 87 1020.8
20260510022101 34 63 1.0 3.0 0.00 0.00 0.00 87 1020.8
20260510021559 34 80 0.0 1.0 0.00 0.00 0.00 87 1020.9
20260510021100 34 71 0.0 3.0 0.00 0.00 0.00 87 1020.9
20260510020558 35 72 0.0 3.0 0.00 0.00 0.00 87 1020.9
20260510020058 35 76 0.0 3.0 0.00 0.00 0.00 87 1020.9
20260510015600 35 67 0.0 2.0 0.00 0.00 0.00 87 1021.0
20260510015059 35 66 0.0 2.0 0.00 0.00 0.00 86 1020.9
20260510014608 35 73 0.0 2.0 0.00 0.00 0.00 86 1021.0
20260510014058 35 64 0.0 3.0 0.00 0.00 0.00 86 1021.0
20260510013559 35 66 1.0 2.0 0.00 0.00 0.00 86 1021.0
20260510013058 36 85 0.0 1.0 0.00 0.00 0.00 86 1021.1
20260510012558 36 78 0.0 2.0 0.00 0.00 0.00 86 1021.0
20260510012059 36 77 0.0 3.0 0.00 0.00 0.00 86 1021.0
20260510011601 36 70 0.0 3.0 0.00 0.00 0.00 85 1021.0
20260510011101 36 78 0.0 2.0 0.00 0.00 0.00 85 1021.1
20260510010558 36 360 0.0 0.0 0.00 0.00 0.00 85 1021.1
20260510010104 36 59 0.0 1.0 0.00 0.00 0.00 85 1021.0
20260510005558 37 360 0.0 2.0 0.00 0.00 0.00 85 1021.1
20260510005058 37 78 0.0 2.0 0.00 0.00 0.00 85 1021.2
20260510004559 37 105 0.0 0.0 0.00 0.00 0.00 85 1021.2
20260510004058 37 313 0.0 0.0 0.00 0.00 0.00 84 1021.3
20260510003558 37 325 0.0 1.0 0.00 0.00 0.00 84 1021.2
20260510003104 37 180 0.0 1.0 0.00 0.00 0.00 84 1021.2
20260510002600 37 72 0.0 3.0 0.00 0.00 0.00 84 1021.1
20260510002501 37 57 0.0 3.0 0.00 0.00 0.00 84 1021.1
20260510002057 37 63 1.0 3.0 0.00 0.00 0.00 84 1021.2
20260510001600 38 94 1.0 3.0 0.00 0.00 0.00 83 1021.2
20260510001059 38 59 0.0 2.0 0.00 0.00 0.00 83 1021.2
20260510000601 38 75 1.0 3.0 0.00 0.00 0.00 82 1021.3
20260510000059 38 61 1.0 3.0 0.00 0.00 0.00 82 1021.3
20260509235559 39 314 0.0 3.0 0.00 0.00 0.00 82 1021.3
20260509235057 38 308 0.0 3.0 0.00 0.00 0.00 82 1021.4
20260509234608 39 57 0.0 2.0 0.00 0.00 0.00 81 1021.4
20260509234057 39 82 0.0 3.0 0.00 0.00 0.00 80 1021.5
20260509233601 39 73 0.0 3.0 0.00 0.00 0.00 81 1021.4
20260509233058 39 340 0.0 2.0 0.00 0.00 0.00 81 1021.4
20260509232557 39 62 0.0 2.0 0.00 0.00 0.00 81 1021.6
20260509232058 39 360 0.0 3.0 0.00 0.00 0.00 81 1021.6
20260509231558 39 73 1.0 3.0 0.00 0.00 0.00 80 1021.7
20260509231058 39 55 2.0 3.0 0.00 0.00 0.00 79 1021.7
20260509230557 39 63 0.0 3.0 0.00 0.00 0.00 79 1021.7
20260509230106 40 51 0.0 3.0 0.00 0.00 0.00 79 1021.7
20260509225600 40 80 0.0 3.0 0.00 0.00 0.00 78 1021.7
20260509225058 40 72 0.0 3.0 0.00 0.00 0.00 78 1021.8
20260509224559 40 92 0.0 2.0 0.00 0.00 0.00 78 1021.8
20260509224059 40 78 0.0 2.0 0.00 0.00 0.00 77 1021.8
20260509223600 41 65 0.0 1.0 0.00 0.00 0.00 77 1021.8
20260509223101 41 140 0.0 1.0 0.00 0.00 0.00 77 1021.9
20260509222602 41 76 0.0 0.0 0.00 0.00 0.00 76 1021.8
20260509222059 41 41 0.0 1.0 0.00 0.00 0.00 76 1021.9
20260509221601 41 82 0.0 1.0 0.00 0.00 0.00 75 1021.9
20260509221059 41 71 0.0 1.0 0.00 0.00 0.00 75 1021.8
20260509220601 41 69 0.0 2.0 0.00 0.00 0.00 74 1021.8
20260509220105 42 70 0.0 2.0 0.00 0.00 0.00 73 1021.9
20260509215559 42 78 0.0 2.0 0.00 0.00 0.00 73 1021.9
20260509215501 42 82 0.0 2.0 0.00 0.00 0.00 73 1021.9
20260509215100 42 70 1.0 2.0 0.00 0.00 0.00 73 1021.9
20260509214559 43 68 0.0 3.0 0.00 0.00 0.00 72 1021.9
20260509214059 43 74 0.0 3.0 0.00 0.00 0.00 72 1021.9
20260509213559 43 65 0.0 2.0 0.00 0.00 0.00 72 1021.9
20260509213106 44 56 0.0 3.0 0.00 0.00 0.00 71 1022.0
20260509212559 44 65 0.0 3.0 0.00 0.00 0.00 70 1022.0
20260509212059 44 65 0.0 1.0 0.00 0.00 0.00 70 1022.0
20260509211606 45 351 0.0 1.0 0.00 0.00 0.00 69 1022.0
20260509211059 45 129 0.0 1.0 0.00 0.00 0.00 67 1022.0
20260509210600 45 98 0.0 1.0 0.00 0.00 0.00 66 1022.0
20260509205600 46 320 0.0 2.0 0.00 0.00 0.00 65 1022.0
20260509205104 46 34 0.0 0.0 0.00 0.00 0.00 65 1022.0
20260509204605 47 105 0.0 1.0 0.00 0.00 0.00 63 1022.0
20260509204100 47 302 0.0 2.0 0.00 0.00 0.00 61 1022.0
20260509203600 48 313 0.0 2.0 0.00 0.00 0.00 59 1022.0
20260509203102 48 283 0.0 2.0 0.00 0.00 0.00 59 1022.0
20260509202600 49 312 0.0 3.0 0.00 0.00 0.00 58 1022.0
20260509202059 49 312 0.0 2.0 0.00 0.00 0.00 57 1022.0
20260509201601 49 306 0.0 3.0 0.00 0.00 0.00 57 1022.0